Location: Sternwarte_Laufen
(47.9344°N, 12.9346°E)
Time: 01:27:23
(UTC+02:00)

Envisat - Pass Details

Date: 12 May 2026
Orbit: 761 x 763 km, 98.4° (Epoch: 7 June)

Event Time Altitude Azimuth Distance (km) Brightness Sun altitude
Rises 02:47:46 0° 25° (NNE) 3,235 7.9 -20.1°
Reaches altitude 10° 02:50:31 10° 39° (NE) 2,304 6.6 -19.8°
Maximum altitude 02:54:35 24° 92° (E) 1,546 4.8 -19.5°
Enters shadow 02:58:35 10° 146° (SE) 2,274 5.2 -19.2°
